Date String (YYYY-MM-DD hh:mm:ss) UTC,Instrument flags,absolute air pressure of the measurement (hPa),sample flow rate (lpm),inlet stack bypass flow (lpm),air temperature of the measurement (°C),ambient temperature measured by the external sensor (°C),aerosol sample conditioner tube jacket temperature (°C),OPC LED temperature (°C),internal box temperature (°C),relative humidity of the measurement (%),span deviation,mass concentration of particles derived from Lorenz-Mie calculation of OPC scattering (μg/m³),mass concentration of particles derived from Lorenz-Mie calculation of OPC scattering (μg/m³),mass concentration of particles derived from Lorenz-Mie calculation of OPC scattering (μg/m³)
DateTimeUTC,F1_M11,P_M11,Q1_M11,Q2_M11,T1_M11,T2_M11,T3_M11,T4_M11,T5_M11,U1_M11,ZSPAN_M11,X2_M11,X0_M11,X1_M11
2024-06-15 13:00:00,SystemResetWarning,0827.8,5.01,000.00,030.9,030.3,000.0,039.2,032.6,037.8,-000.1,0012.96,0024.30,0010.92
2024-06-15 13:01:00,SystemResetWarning,0827.8,5.00,000.00,030.9,030.3,000.0,039.2,032.7,037.8,-000.2,0012.99,0024.60,0010.94
2024-06-15 13:02:00,SystemResetWarning,0827.7,4.99,000.00,030.9,030.3,000.0,039.3,032.7,037.6,-000.4,0013.11,0026.42,0010.97
2024-06-15 13:03:00,SystemResetWarning,0827.7,5.00,000.00,030.9,030.3,000.0,039.3,032.7,037.6,-000.4,0013.15,0027.07,0011.02
2024-06-15 13:04:00,SystemResetWarning,0827.7,5.01,000.00,031.0,030.3,000.0,039.3,032.7,037.5,-000.3,0013.11,0027.38,0011.03
2024-06-15 13:05:00,SystemResetWarning,0827.8,5.01,000.00,031.0,030.3,000.0,039.3,032.7,037.5,-000.1,0013.06,0026.80,0011.04
2024-06-15 13:06:00,SystemResetWarning,0827.8,4.99,000.00,031.0,030.3,000.0,039.3,032.7,037.6,-000.3,0013.11,0026.74,0011.05
2024-06-15 13:07:00,SystemResetWarning,0827.8,4.99,000.00,031.0,030.3,000.0,039.3,032.7,037.7,0000.0,0013.07,0027.09,0011.07
2024-06-15 13:08:00,SystemResetWarning,0827.8,5.00,000.00,031.0,030.3,000.0,039.3,032.7,037.8,0000.1,0013.02,0026.97,0011.07
2024-06-15 13:09:00,SystemResetWarning,0827.8,4.99,000.00,031.0,030.4,000.0,039.3,032.7,037.9,-000.0,0013.01,0027.25,0011.06
2024-06-15 13:10:00,SystemResetWarning,0828.0,5.01,000.00,031.1,030.4,000.0,039.4,032.8,038.1,-000.2,0013.01,0027.64,0011.04
2024-06-15 13:11:00,SystemResetWarning,0827.8,5.01,000.00,031.1,030.4,000.0,039.4,032.8,038.3,-000.4,0013.00,0027.92,0011.01
2024-06-15 13:12:00,SystemResetWarning,0827.8,5.00,000.00,031.1,030.4,000.0,039.4,032.8,038.3,0000.1,0013.00,0027.23,0011.00
2024-06-15 13:13:00,SystemResetWarning,0827.8,4.99,000.00,031.1,030.4,000.0,039.4,032.8,038.2,0000.7,0012.91,0024.85,0011.01
2024-06-15 13:14:00,SystemResetWarning,0827.8,4.99,000.00,031.1,030.4,000.0,039.4,032.8,038.3,0000.6,0012.84,0023.82,0010.98
2024-06-15 13:15:00,SystemResetWarning,0827.8,5.00,000.00,031.1,030.5,000.0,039.4,032.9,038.5,0000.5,0012.85,0023.65,0010.97
2024-06-15 13:16:00,SystemResetWarning,0827.8,5.01,000.00,031.1,030.5,000.0,039.4,032.9,038.7,0000.6,0012.83,0023.37,0010.95
2024-06-15 13:17:00,SystemResetWarning,0827.8,5.01,000.00,031.2,030.5,000.0,039.5,032.9,038.4,0000.6,0012.81,0022.95,0010.94
2024-06-15 13:18:00,SystemResetWarning,0827.8,4.99,000.00,031.2,030.5,000.0,039.5,032.9,038.2,0000.2,0012.82,0022.65,0010.93
2024-06-15 13:19:00,SystemResetWarning,0827.8,4.99,000.00,031.2,030.5,000.0,039.5,032.9,038.1,-000.0,0012.80,0023.01,0010.91
2024-06-15 13:20:00,SystemResetWarning,0827.7,5.01,000.00,031.2,030.5,000.0,039.5,032.9,037.9,-000.0,0012.72,0022.46,0010.88
2024-06-15 13:21:00,SystemResetWarning,0827.7,5.01,000.00,031.2,030.5,000.0,039.5,032.9,037.7,0000.1,0012.64,0021.41,0010.85
2024-06-15 13:22:00,SystemResetWarning,0827.7,5.00,000.00,031.2,030.5,000.0,039.5,032.8,037.6,0000.0,0012.56,0020.63,0010.81
2024-06-15 13:23:00,SystemResetWarning,0827.7,4.98,000.00,031.1,028.8,000.0,039.6,032.2,037.9,-000.4,0012.48,0020.08,0010.77
2024-06-15 13:24:00,SystemResetWarning,0827.6,5.01,000.00,030.6,027.0,000.0,039.6,031.3,038.1,-000.8,0012.45,0020.67,0010.70
2024-06-15 13:25:00,SystemResetWarning,0827.6,5.01,000.00,030.3,026.9,000.0,039.5,031.0,038.4,-001.0,0012.38,0020.70,0010.62
2024-06-15 13:26:00,SystemResetWarning,0827.7,4.99,000.00,030.2,027.2,000.0,039.3,031.1,038.6,-001.0,0012.25,0020.25,0010.50
2024-06-15 13:27:00,SystemResetWarning,0827.7,5.01,000.00,030.2,027.7,000.0,039.2,031.3,038.3,-001.1,0012.13,0020.73,0010.41
2024-06-15 13:28:00,SystemResetWarning,0827.7,4.99,000.00,030.2,028.1,000.0,039.1,031.5,038.5,-001.2,0011.97,0020.94,0010.31
2024-06-15 13:29:00,SystemResetWarning,0827.7,5.00,000.00,030.2,028.4,000.0,039.0,031.6,038.7,-001.0,0011.87,0021.68,0010.21
2024-06-15 13:30:00,SystemResetWarning,0827.7,5.00,000.00,030.2,028.7,000.0,039.0,031.7,037.9,-001.0,0011.86,0021.33,0010.12
2024-06-15 13:31:00,SystemResetWarning,0827.7,5.00,000.00,030.2,028.9,000.0,038.9,031.8,037.6,-001.1,0011.85,0022.07,0010.07
2024-06-15 13:32:00,SystemResetWarning,0827.7,4.99,000.00,030.2,029.1,000.0,038.9,031.9,037.5,-001.2,0011.82,0022.43,0010.03
2024-06-15 13:33:00,SystemResetWarning,0827.6,4.99,000.00,030.3,029.2,000.0,038.9,032.0,036.9,-000.8,0011.77,0022.62,0009.98
2024-06-15 13:34:00,SystemResetWarning,0827.6,5.00,000.00,030.3,029.4,000.0,038.8,032.0,036.9,-000.5,0011.71,0023.22,0009.94
2024-06-15 13:35:00,SystemResetWarning,0827.7,5.00,000.00,030.3,029.5,000.0,038.8,032.1,036.4,-000.2,0011.70,0023.19,0009.90
2024-06-15 13:36:00,SystemResetWarning,0827.6,5.00,000.00,030.4,029.6,000.0,038.8,032.1,036.1,0000.2,0011.67,0023.89,0009.85
2024-06-15 13:37:00,SystemResetWarning,0827.6,5.01,000.00,030.4,029.7,000.0,038.8,032.2,036.1,0000.5,0011.66,0024.26,0009.84
2024-06-15 13:38:00,SystemResetWarning,0827.6,5.00,000.00,030.4,029.7,000.0,038.8,032.2,036.1,0000.6,0011.70,0023.91,0009.83
2024-06-15 13:39:00,SystemResetWarning,0827.6,5.00,000.00,030.5,029.8,000.0,038.8,032.2,036.2,0000.9,0011.75,0023.91,0009.84
2024-06-15 13:40:00,SystemResetWarning,0827.5,5.00,000.00,030.5,029.8,000.0,038.9,032.3,036.0,0001.0,0011.73,0023.80,0009.78
2024-06-15 13:41:00,SystemResetWarning,0827.5,4.99,000.00,030.5,029.9,000.0,038.9,032.3,035.3,0001.0,0011.61,0023.86,0009.70
2024-06-15 13:42:00,SystemResetWarning,0827.5,4.99,000.00,030.6,029.9,000.0,038.9,032.3,035.3,0001.2,0011.43,0023.70,0009.60
2024-06-15 13:43:00,SystemResetWarning,0827.5,5.00,000.00,030.6,030.0,000.0,038.9,032.3,035.8,0001.1,0011.31,0023.82,0009.53
2024-06-15 13:44:00,SystemResetWarning,0827.6,5.00,000.00,030.6,030.0,000.0,038.9,032.4,036.0,0001.1,0011.32,0024.42,0009.51
2024-06-15 13:45:00,SystemResetWarning,0827.5,5.01,000.00,030.7,030.1,000.0,038.9,032.4,035.8,0000.8,0011.33,0024.07,0009.43
2024-06-15 13:46:00,SystemResetWarning,0827.6,5.00,000.00,030.7,030.1,000.0,039.0,032.4,035.3,0000.8,0011.26,0023.39,0009.37
2024-06-15 13:47:00,SystemResetWarning,0827.7,5.00,000.00,030.7,030.1,000.0,039.0,032.5,034.8,0000.3,0011.23,0023.24,0009.33
2024-06-15 13:48:00,SystemResetWarning,0827.7,4.99,000.00,030.8,030.2,000.0,039.0,032.5,035.2,0000.1,0011.18,0023.79,0009.24
2024-06-15 13:49:00,SystemResetWarning,0827.7,4.98,000.00,030.8,029.7,000.0,039.1,032.3,036.0,0000.4,0011.08,0023.82,0009.17
2024-06-15 13:50:00,SystemResetWarning,0827.6,5.01,000.00,030.5,027.8,000.0,039.1,031.4,036.3,0000.4,0011.05,0023.46,0009.15
2024-06-15 13:51:00,SystemResetWarning,0827.6,5.01,000.00,030.1,026.6,000.0,039.1,030.9,037.1,0000.3,0011.16,0023.21,0009.19
2024-06-15 13:52:00,SystemResetWarning,0827.4,4.99,000.00,029.9,026.8,000.0,039.0,030.8,037.5,0000.3,0011.26,0022.84,0009.27
2024-06-15 13:53:00,SystemResetWarning,0827.4,5.00,000.00,029.8,027.2,000.0,038.8,030.9,037.7,0000.3,0011.34,0022.15,0009.37
2024-06-15 13:54:00,SystemResetWarning,0827.4,5.00,000.00,029.8,027.6,000.0,038.7,031.1,037.5,0000.3,0011.41,0021.39,0009.40
2024-06-15 13:55:00,SystemResetWarning,0827.5,5.00,000.00,029.8,028.0,000.0,038.6,031.3,037.5,0000.3,0011.43,0021.27,0009.41
2024-06-15 13:56:00,SystemResetWarning,0827.8,5.00,000.00,029.9,028.3,000.0,038.6,031.4,037.5,0000.5,0011.37,0022.25,0009.44
2024-06-15 13:57:00,SystemResetWarning,0827.7,5.00,000.00,029.9,028.5,000.0,038.5,031.5,036.9,0000.6,0011.37,0022.32,0009.46
2024-06-15 13:58:00,SystemResetWarning,0827.5,5.00,000.00,029.9,028.7,000.0,038.5,031.6,036.8,0001.0,0011.36,0022.23,0009.47
2024-06-15 13:59:00,SystemResetWarning,0827.5,4.99,000.00,030.0,028.9,000.0,038.5,031.7,036.8,0001.2,0011.39,0021.14,0009.52
